Time,TemperatureF,DewpointF,PressureIn,WindDirection,WindDirectionDegrees,WindSpeedMPH,WindSpeedGustMPH,Humidity,HourlyPrecipIn,Conditions,Clouds,dailyrainin,SoftwareType,DateUTC
2013-10-06 00:02:00,-999.9,99.9,30.74,ESE,110,2.0,4.0,52,0.00,,,-99.99,FreeWX-Wi 1.01,2013-10-06 04:02:00,
2013-10-06 00:07:00,-999.9,99.9,30.74,ESE,107,2.0,4.9,51,0.00,,,-99.99,FreeWX-Wi 1.01,2013-10-06 04:07:00,
2013-10-06 00:12:00,-999.9,99.9,30.74,East,100,3.0,5.4,50,0.00,,,-99.99,FreeWX-Wi 1.01,2013-10-06 04:12:00,
2013-10-06 00:17:00,-999.9,99.9,30.74,East,96,3.0,5.8,46,0.00,,,-99.99,FreeWX-Wi 1.01,2013-10-06 04:17:00,
2013-10-06 00:22:00,-999.9,99.9,30.74,East,96,4.0,6.3,45,0.00,,,-99.99,FreeWX-Wi 1.01,2013-10-06 04:22:00,
2013-10-06 00:27:00,-999.9,99.9,30.74,East,95,4.0,5.4,46,0.00,,,-99.99,FreeWX-Wi 1.01,2013-10-06 04:27:00,
2013-10-06 00:32:00,-999.9,99.9,30.74,East,98,4.0,4.0,47,0.00,,,-99.99,FreeWX-Wi 1.01,2013-10-06 04:32:00,
2013-10-06 00:37:00,-999.9,99.9,30.74,ESE,102,3.0,3.1,50,0.00,,,-99.99,FreeWX-Wi 1.01,2013-10-06 04:37:00,
2013-10-06 00:42:00,-999.9,99.9,30.74,ESE,107,3.0,3.6,48,0.00,,,-99.99,FreeWX-Wi 1.01,2013-10-06 04:42:00,
2013-10-06 00:47:00,-999.9,99.9,30.74,ESE,109,3.0,4.0,49,0.00,,,-99.99,FreeWX-Wi 1.01,2013-10-06 04:47:00,
2013-10-06 00:52:00,-999.9,99.9,30.74,ESE,111,3.0,4.0,48,0.00,,,-99.99,FreeWX-Wi 1.01,2013-10-06 04:52:00,
2013-10-06 00:57:00,-999.9,99.9,30.74,ESE,115,3.0,4.9,48,0.00,,,-99.99,FreeWX-Wi 1.01,2013-10-06 04:57:00,
2013-10-06 01:02:00,-999.9,99.9,30.74,ESE,117,2.0,3.1,49,0.00,,,-99.99,FreeWX-Wi 1.01,2013-10-06 05:02:00,
2013-10-06 01:07:00,-999.9,99.9,30.74,ESE,119,2.0,0.0,50,0.00,,,-99.99,FreeWX-Wi 1.01,2013-10-06 05:07:00,
2013-10-06 01:12:00,-999.9,99.9,30.74,ESE,120,2.0,3.6,50,0.00,,,-99.99,FreeWX-Wi 1.01,2013-10-06 05:12:00,
2013-10-06 01:17:00,-999.9,99.9,30.74,SE,125,2.0,3.1,52,0.00,,,-99.99,FreeWX-Wi 1.01,2013-10-06 05:17:00,
2013-10-06 01:22:00,-999.9,99.9,30.74,SE,126,2.0,3.6,53,0.00,,,-99.99,FreeWX-Wi 1.01,2013-10-06 05:22:00,
2013-10-06 01:27:00,-999.9,99.9,30.74,SE,129,2.0,4.0,53,0.00,,,-99.99,FreeWX-Wi 1.01,2013-10-06 05:27:00,
2013-10-06 01:32:00,-999.9,99.9,30.74,SE,126,2.0,3.1,52,0.00,,,-99.99,FreeWX-Wi 1.01,2013-10-06 05:32:00,
2013-10-06 01:37:00,-999.9,99.9,30.74,SE,129,2.0,3.6,53,0.00,,,-99.99,FreeWX-Wi 1.01,2013-10-06 05:37:00,
2013-10-06 01:42:00,-999.9,99.9,30.74,SE,127,2.0,4.0,53,0.00,,,-99.99,FreeWX-Wi 1.01,2013-10-06 05:42:00,
2013-10-06 01:47:00,-999.9,99.9,30.74,SE,124,2.0,4.0,51,0.00,,,-99.99,FreeWX-Wi 1.01,2013-10-06 05:47:00,
2013-10-06 01:52:00,-999.9,99.9,30.74,ESE,121,2.0,3.6,51,0.00,,,-99.99,FreeWX-Wi 1.01,2013-10-06 05:52:00,
2013-10-06 01:57:00,-999.9,99.9,30.74,ESE,119,2.0,2.7,51,0.00,,,-99.99,FreeWX-Wi 1.01,2013-10-06 05:57:00,
2013-10-06 02:02:00,-999.9,99.9,30.74,ESE,117,2.0,3.1,53,0.00,,,-99.99,FreeWX-Wi 1.01,2013-10-06 06:02:00,
2013-10-06 02:07:00,-999.9,99.9,30.74,ESE,112,1.0,0.0,52,0.00,,,-99.99,FreeWX-Wi 1.01,2013-10-06 06:07:00,
2013-10-06 02:12:00,-999.9,99.9,30.74,ESE,110,1.0,3.1,52,0.00,,,-99.99,FreeWX-Wi 1.01,2013-10-06 06:12:00,
2013-10-06 02:17:00,-999.9,99.9,30.74,ESE,109,1.0,3.1,53,0.00,,,-99.99,FreeWX-Wi 1.01,2013-10-06 06:17:00,
2013-10-06 02:22:00,-999.9,99.9,30.74,North,-999,0.0,0.0,52,0.00,,,-99.99,FreeWX-Wi 1.01,2013-10-06 06:22:00,
2013-10-06 02:27:00,-999.9,99.9,30.74,North,-999,0.0,0.0,52,0.00,,,-99.99,FreeWX-Wi 1.01,2013-10-06 06:27:00,
2013-10-06 02:32:00,-999.9,99.9,30.74,North,-999,0.0,3.1,52,0.00,,,-99.99,FreeWX-Wi 1.01,2013-10-06 06:32:00,
2013-10-06 02:37:00,-999.9,99.9,30.74,ESE,106,1.0,3.6,52,0.00,,,-99.99,FreeWX-Wi 1.01,2013-10-06 06:37:00,
2013-10-06 02:42:00,-999.9,99.9,30.74,ESE,106,1.0,4.0,52,0.00,,,-99.99,FreeWX-Wi 1.01,2013-10-06 06:42:00,
2013-10-06 02:47:00,-999.9,99.9,30.74,ESE,105,2.0,4.0,52,0.00,,,-99.99,FreeWX-Wi 1.01,2013-10-06 06:47:00,
2013-10-06 02:52:00,-999.9,99.9,30.74,ESE,104,2.0,4.9,50,0.00,,,-99.99,FreeWX-Wi 1.01,2013-10-06 06:52:00,
2013-10-06 02:57:00,-999.9,99.9,30.74,ESE,104,3.0,5.4,49,0.00,,,-99.99,FreeWX-Wi 1.01,2013-10-06 06:57:00,
2013-10-06 03:02:00,-999.9,99.9,30.74,ESE,103,3.0,5.4,47,0.00,,,-99.99,FreeWX-Wi 1.01,2013-10-06 07:02:00,
2013-10-06 03:07:00,-999.9,99.9,30.74,ESE,102,3.0,5.4,47,0.00,,,-99.99,FreeWX-Wi 1.01,2013-10-06 07:07:00,
2013-10-06 03:12:00,-999.9,99.9,30.74,East,101,3.0,3.1,49,0.00,,,-99.99,FreeWX-Wi 1.01,2013-10-06 07:12:00,
2013-10-06 03:17:00,-999.9,99.9,30.74,East,100,3.0,3.6,50,0.00,,,-99.99,FreeWX-Wi 1.01,2013-10-06 07:17:00,
2013-10-06 03:22:00,-999.9,99.9,30.74,East,100,3.0,3.6,47,0.00,,,-99.99,FreeWX-Wi 1.01,2013-10-06 07:22:00,
2013-10-06 03:27:00,-999.9,99.9,30.74,East,101,3.0,4.9,45,0.00,,,-99.99,FreeWX-Wi 1.01,2013-10-06 07:27:00,
2013-10-06 03:32:00,-999.9,99.9,30.74,East,98,3.0,4.0,46,0.00,,,-99.99,FreeWX-Wi 1.01,2013-10-06 07:32:00,
2013-10-06 03:37:00,-999.9,99.9,30.74,East,99,3.0,4.0,47,0.00,,,-99.99,FreeWX-Wi 1.01,2013-10-06 07:37:00,
2013-10-06 03:42:00,-999.9,99.9,30.74,East,100,3.0,5.4,46,0.00,,,-99.99,FreeWX-Wi 1.01,2013-10-06 07:42:00,
2013-10-06 03:47:00,-999.9,99.9,30.74,ESE,102,3.0,4.9,46,0.00,,,-99.99,FreeWX-Wi 1.01,2013-10-06 07:47:00,
2013-10-06 03:52:00,-999.9,99.9,30.74,ESE,103,3.0,4.9,47,0.00,,,-99.99,FreeWX-Wi 1.01,2013-10-06 07:52:00,
2013-10-06 03:57:00,-999.9,99.9,30.74,ESE,104,3.0,4.9,48,0.00,,,-99.99,FreeWX-Wi 1.01,2013-10-06 07:57:00,
2013-10-06 04:02:00,-999.9,99.9,30.74,ESE,105,3.0,3.1,49,0.00,,,-99.99,FreeWX-Wi 1.01,2013-10-06 08:02:00,
2013-10-06 04:07:00,-999.9,99.9,30.74,ESE,104,3.0,4.0,49,0.00,,,-99.99,FreeWX-Wi 1.01,2013-10-06 08:07:00,
2013-10-06 04:12:00,-999.9,99.9,30.74,ESE,103,2.0,4.0,50,0.00,,,-99.99,FreeWX-Wi 1.01,2013-10-06 08:12:00,
2013-10-06 04:17:00,-999.9,99.9,30.74,ESE,103,2.0,4.0,48,0.00,,,-99.99,FreeWX-Wi 1.01,2013-10-06 08:17:00,
2013-10-06 04:22:00,-999.9,99.9,30.74,ESE,109,2.0,4.0,49,0.00,,,-99.99,FreeWX-Wi 1.01,2013-10-06 08:22:00,
2013-10-06 04:27:00,-999.9,99.9,30.74,ESE,116,3.0,3.1,49,0.00,,,-99.99,FreeWX-Wi 1.01,2013-10-06 08:27:00,
2013-10-06 04:32:00,-999.9,99.9,30.74,SE,126,2.0,2.7,49,0.00,,,-99.99,FreeWX-Wi 1.01,2013-10-06 08:32:00,
2013-10-06 04:37:00,-999.9,99.9,30.74,SE,135,2.0,2.2,50,0.00,,,-99.99,FreeWX-Wi 1.01,2013-10-06 08:37:00,
2013-10-06 04:42:00,-999.9,99.9,30.74,SE,142,1.0,0.0,50,0.00,,,-99.99,FreeWX-Wi 1.01,2013-10-06 08:42:00,
2013-10-06 04:47:00,-999.9,99.9,30.74,North,-999,0.0,0.0,52,0.00,,,-99.99,FreeWX-Wi 1.01,2013-10-06 08:47:00,
2013-10-06 04:52:00,-999.9,99.9,30.74,North,-999,0.0,0.0,51,0.00,,,-99.99,FreeWX-Wi 1.01,2013-10-06 08:52:00,
2013-10-06 04:57:00,-999.9,99.9,30.74,North,-999,0.0,3.6,50,0.00,,,-99.99,FreeWX-Wi 1.01,2013-10-06 08:57:00,
2013-10-06 05:02:00,-999.9,99.9,30.74,North,-999,0.0,0.0,50,0.00,,,-99.99,FreeWX-Wi 1.01,2013-10-06 09:02:00,
2013-10-06 05:08:00,-999.9,99.9,30.74,North,-999,0.0,0.0,50,0.00,,,-99.99,FreeWX-Wi 1.01,2013-10-06 09:08:00,
2013-10-06 05:13:00,-999.9,99.9,30.74,North,-999,0.0,0.0,50,0.00,,,-99.99,FreeWX-Wi 1.01,2013-10-06 09:13:00,
2013-10-06 05:18:00,-999.9,99.9,30.74,North,-999,0.0,0.0,49,0.00,,,-99.99,FreeWX-Wi 1.01,2013-10-06 09:18:00,
2013-10-06 05:23:00,-999.9,99.9,30.74,North,-999,0.0,0.0,48,0.00,,,-99.99,FreeWX-Wi 1.01,2013-10-06 09:23:00,
2013-10-06 05:28:00,-999.9,99.9,30.74,North,-999,0.0,0.0,49,0.00,,,-99.99,FreeWX-Wi 1.01,2013-10-06 09:28:00,
2013-10-06 05:33:00,-999.9,99.9,30.74,North,-999,0.0,0.0,50,0.00,,,-99.99,FreeWX-Wi 1.01,2013-10-06 09:33:00,
2013-10-06 05:38:00,-999.9,99.9,30.74,North,-999,0.0,3.1,49,0.00,,,-99.99,FreeWX-Wi 1.01,2013-10-06 09:38:00,
2013-10-06 05:43:00,-999.9,99.9,30.74,North,-999,0.0,3.6,50,0.00,,,-99.99,FreeWX-Wi 1.01,2013-10-06 09:43:00,
2013-10-06 05:48:00,-999.9,99.9,30.74,SE,125,1.0,4.0,50,0.00,,,-99.99,FreeWX-Wi 1.01,2013-10-06 09:48:00,
2013-10-06 05:53:00,-999.9,99.9,30.74,ESE,116,2.0,4.9,52,0.00,,,-99.99,FreeWX-Wi 1.01,2013-10-06 09:53:00,
2013-10-06 05:58:00,-999.9,99.9,30.74,ESE,111,2.0,5.4,51,0.00,,,-99.99,FreeWX-Wi 1.01,2013-10-06 09:58:00,
2013-10-06 06:03:00,-999.9,99.9,30.74,ESE,107,3.0,5.4,50,0.00,,,-99.99,FreeWX-Wi 1.01,2013-10-06 10:03:00,
2013-10-06 06:08:00,-999.9,99.9,30.74,ESE,104,3.0,4.0,50,0.00,,,-99.99,FreeWX-Wi 1.01,2013-10-06 10:08:00,
2013-10-06 06:13:00,-999.9,99.9,30.74,ESE,105,2.0,0.0,51,0.00,,,-99.99,FreeWX-Wi 1.01,2013-10-06 10:13:00,
2013-10-06 06:18:00,-999.9,99.9,30.74,ESE,110,2.0,3.1,52,0.00,,,-99.99,FreeWX-Wi 1.01,2013-10-06 10:18:00,
2013-10-06 06:23:00,-999.9,99.9,30.74,ESE,113,2.0,3.1,53,0.00,,,-99.99,FreeWX-Wi 1.01,2013-10-06 10:23:00,
2013-10-06 06:28:00,-999.9,99.9,30.74,ESE,115,1.0,3.6,53,0.00,,,-99.99,FreeWX-Wi 1.01,2013-10-06 10:28:00,
2013-10-06 06:33:00,-999.9,99.9,30.74,North,-999,0.0,0.0,53,0.00,,,-99.99,FreeWX-Wi 1.01,2013-10-06 10:33:00,
2013-10-06 06:38:00,-999.9,99.9,30.74,North,-999,0.0,0.0,54,0.00,,,-99.99,FreeWX-Wi 1.01,2013-10-06 10:38:00,
2013-10-06 06:43:00,-999.9,99.9,30.74,North,-999,0.0,0.0,54,0.00,,,-99.99,FreeWX-Wi 1.01,2013-10-06 10:43:00,
2013-10-06 06:48:00,-999.9,99.9,30.74,North,-999,0.0,0.0,54,0.00,,,-99.99,FreeWX-Wi 1.01,2013-10-06 10:48:00,
2013-10-06 06:53:00,-999.9,99.9,30.74,North,-999,0.0,0.0,54,0.00,,,-99.99,FreeWX-Wi 1.01,2013-10-06 10:53:00,
2013-10-06 06:58:00,-999.9,99.9,30.74,North,-999,0.0,0.0,55,0.00,,,-99.99,FreeWX-Wi 1.01,2013-10-06 10:58:00,
2013-10-06 07:03:00,-999.9,99.9,30.74,North,-999,0.0,0.0,56,0.00,,,-99.99,FreeWX-Wi 1.01,2013-10-06 11:03:00,
2013-10-06 07:08:00,-999.9,99.9,30.74,North,-999,0.0,0.0,59,0.00,,,-99.99,FreeWX-Wi 1.01,2013-10-06 11:08:00,
2013-10-06 07:13:00,-999.9,99.9,30.74,North,-999,0.0,3.6,61,0.00,,,-99.99,FreeWX-Wi 1.01,2013-10-06 11:13:00,
2013-10-06 07:18:00,-999.9,99.9,30.74,North,-999,0.0,3.6,59,0.00,,,-99.99,FreeWX-Wi 1.01,2013-10-06 11:18:00,
2013-10-06 07:23:00,-999.9,99.9,30.74,ESE,106,1.0,3.6,55,0.00,,,-99.99,FreeWX-Wi 1.01,2013-10-06 11:23:00,
2013-10-06 07:28:00,-999.9,99.9,30.74,ESE,107,1.0,3.1,55,0.00,,,-99.99,FreeWX-Wi 1.01,2013-10-06 11:28:00,
2013-10-06 07:33:00,-999.9,99.9,30.74,ESE,108,2.0,3.6,55,0.00,,,-99.99,FreeWX-Wi 1.01,2013-10-06 11:33:00,
2013-10-06 07:38:00,-999.9,99.9,30.74,ESE,108,2.0,0.0,54,0.00,,,-99.99,FreeWX-Wi 1.01,2013-10-06 11:38:00,
2013-10-06 07:43:00,-999.9,99.9,30.74,ESE,110,1.0,0.0,53,0.00,,,-99.99,FreeWX-Wi 1.01,2013-10-06 11:43:00,
2013-10-06 07:48:00,-999.9,99.9,30.74,ESE,106,1.0,0.0,54,0.00,,,-99.99,FreeWX-Wi 1.01,2013-10-06 11:48:00,
2013-10-06 07:53:00,-999.9,99.9,30.74,North,-999,0.0,0.0,53,0.00,,,-99.99,FreeWX-Wi 1.01,2013-10-06 11:53:00,
2013-10-06 07:58:00,-999.9,99.9,30.74,North,-999,0.0,0.0,49,0.00,,,-99.99,FreeWX-Wi 1.01,2013-10-06 11:58:00,
2013-10-06 08:03:00,-999.9,99.9,30.74,North,-999,0.0,0.0,47,0.00,,,-99.99,FreeWX-Wi 1.01,2013-10-06 12:03:00,
2013-10-06 08:08:00,-999.9,99.9,30.74,North,-999,0.0,3.6,48,0.00,,,-99.99,FreeWX-Wi 1.01,2013-10-06 12:08:00,
2013-10-06 08:13:00,-999.9,99.9,30.74,East,81,1.0,4.0,47,0.00,,,-99.99,FreeWX-Wi 1.01,2013-10-06 12:13:00,
2013-10-06 08:18:00,-999.9,99.9,30.74,East,87,1.0,4.0,47,0.00,,,-99.99,FreeWX-Wi 1.01,2013-10-06 12:18:00,
2013-10-06 08:23:00,-999.9,99.9,30.74,East,89,1.0,2.2,48,0.00,,,-99.99,FreeWX-Wi 1.01,2013-10-06 12:23:00,
2013-10-06 08:28:00,-999.9,99.9,30.74,East,96,1.0,0.0,48,0.00,,,-99.99,FreeWX-Wi 1.01,2013-10-06 12:28:00,
2013-10-06 08:33:00,-999.9,99.9,30.74,ESE,103,1.0,0.0,48,0.00,,,-99.99,FreeWX-Wi 1.01,2013-10-06 12:33:00,
2013-10-06 08:38:00,-999.9,99.9,30.74,North,-999,0.0,0.0,48,0.00,,,-99.99,FreeWX-Wi 1.01,2013-10-06 12:38:00,
2013-10-06 08:43:00,-999.9,99.9,30.74,North,-999,0.0,0.0,49,0.00,,,-99.99,FreeWX-Wi 1.01,2013-10-06 12:43:00,
2013-10-06 08:48:00,-999.9,99.9,30.74,North,-999,0.0,0.0,49,0.00,,,-99.99,FreeWX-Wi 1.01,2013-10-06 12:48:00,
2013-10-06 08:53:00,-999.9,99.9,30.74,North,-999,0.0,0.0,49,0.00,,,-99.99,FreeWX-Wi 1.01,2013-10-06 12:53:00,
2013-10-06 08:58:00,-999.9,99.9,30.74,North,-999,0.0,0.0,49,0.00,,,-99.99,FreeWX-Wi 1.01,2013-10-06 12:58:00,
2013-10-06 09:03:00,-999.9,99.9,30.74,North,-999,0.0,0.0,49,0.00,,,-99.99,FreeWX-Wi 1.01,2013-10-06 13:03:00,
2013-10-06 09:08:00,-999.9,99.9,30.74,North,-999,0.0,0.0,48,0.00,,,-99.99,FreeWX-Wi 1.01,2013-10-06 13:08:00,
2013-10-06 09:13:00,-999.9,99.9,30.74,North,-999,0.0,0.0,48,0.00,,,-99.99,FreeWX-Wi 1.01,2013-10-06 13:13:00,
2013-10-06 09:18:00,-999.9,99.9,30.74,North,-999,0.0,0.0,47,0.00,,,-99.99,FreeWX-Wi 1.01,2013-10-06 13:18:00,
2013-10-06 09:23:00,-999.9,99.9,30.74,North,-999,0.0,0.0,47,0.00,,,-99.99,FreeWX-Wi 1.01,2013-10-06 13:23:00,
2013-10-06 09:28:00,-999.9,99.9,30.74,North,-999,0.0,0.0,46,0.00,,,-99.99,FreeWX-Wi 1.01,2013-10-06 13:28:00,
2013-10-06 09:33:00,-999.9,99.9,30.74,North,-999,0.0,0.0,45,0.00,,,-99.99,FreeWX-Wi 1.01,2013-10-06 13:33:00,
2013-10-06 09:38:00,-999.9,99.9,30.74,North,-999,0.0,0.0,43,0.00,,,-99.99,FreeWX-Wi 1.01,2013-10-06 13:38:00,
2013-10-06 09:43:00,-999.9,99.9,30.74,North,-999,0.0,0.0,42,0.00,,,-99.99,FreeWX-Wi 1.01,2013-10-06 13:43:00,
2013-10-06 09:48:00,-999.9,99.9,30.74,North,-999,0.0,0.0,42,0.00,,,-99.99,FreeWX-Wi 1.01,2013-10-06 13:48:00,
2013-10-06 09:53:00,-999.9,99.9,30.74,North,-999,0.0,0.0,42,0.00,,,-99.99,FreeWX-Wi 1.01,2013-10-06 13:53:00,
2013-10-06 09:58:00,-999.9,99.9,30.74,North,-999,0.0,0.0,42,0.00,,,-99.99,FreeWX-Wi 1.01,2013-10-06 13:58:00,
2013-10-06 10:03:00,-999.9,99.9,30.74,North,-999,0.0,0.0,43,0.00,,,-99.99,FreeWX-Wi 1.01,2013-10-06 14:03:00,
2013-10-06 10:08:00,-999.9,99.9,30.74,North,-999,0.0,0.0,43,0.00,,,-99.99,FreeWX-Wi 1.01,2013-10-06 14:08:00,
2013-10-06 10:13:00,-999.9,99.9,30.74,North,-999,0.0,0.0,43,0.00,,,-99.99,FreeWX-Wi 1.01,2013-10-06 14:13:00,
2013-10-06 10:18:00,-999.9,99.9,30.74,North,-999,0.0,0.0,41,0.00,,,-99.99,FreeWX-Wi 1.01,2013-10-06 14:18:00,
2013-10-06 10:23:00,-999.9,99.9,30.74,North,-999,0.0,0.0,41,0.00,,,-99.99,FreeWX-Wi 1.01,2013-10-06 14:23:00,
2013-10-06 10:28:00,-999.9,99.9,30.74,North,-999,0.0,0.0,42,0.00,,,-99.99,FreeWX-Wi 1.01,2013-10-06 14:28:00,
2013-10-06 10:33:00,-999.9,99.9,30.74,North,-999,0.0,0.0,41,0.00,,,-99.99,FreeWX-Wi 1.01,2013-10-06 14:33:00,
2013-10-06 10:38:00,-999.9,99.9,30.74,North,-999,0.0,0.0,41,0.00,,,-99.99,FreeWX-Wi 1.01,2013-10-06 14:38:00,
2013-10-06 10:43:00,-999.9,99.9,30.74,North,-999,0.0,3.6,40,0.00,,,-99.99,FreeWX-Wi 1.01,2013-10-06 14:43:00,
2013-10-06 10:48:00,-999.9,99.9,30.74,North,-999,0.0,2.7,41,0.00,,,-99.99,FreeWX-Wi 1.01,2013-10-06 14:48:00,
2013-10-06 10:53:00,-999.9,99.9,30.74,North,-999,0.0,2.7,40,0.00,,,-99.99,FreeWX-Wi 1.01,2013-10-06 14:53:00,
2013-10-06 10:58:00,-999.9,99.9,30.74,North,-999,0.0,2.2,40,0.00,,,-99.99,FreeWX-Wi 1.01,2013-10-06 14:58:00,
2013-10-06 11:03:00,-999.9,99.9,30.74,North,-999,0.0,2.7,39,0.00,,,-99.99,FreeWX-Wi 1.01,2013-10-06 15:03:00,
2013-10-06 11:08:00,-999.9,99.9,30.74,North,-999,0.0,3.6,39,0.00,,,-99.99,FreeWX-Wi 1.01,2013-10-06 15:08:00,
2013-10-06 11:13:00,-999.9,99.9,30.74,WNW,303,1.0,3.6,39,0.00,,,-99.99,FreeWX-Wi 1.01,2013-10-06 15:13:00,
2013-10-06 11:18:00,-999.9,99.9,30.74,WNW,303,1.0,3.6,40,0.00,,,-99.99,FreeWX-Wi 1.01,2013-10-06 15:18:00,
2013-10-06 11:23:00,-999.9,99.9,30.74,NW,305,1.0,0.0,40,0.00,,,-99.99,FreeWX-Wi 1.01,2013-10-06 15:23:00,
2013-10-06 11:28:00,-999.9,99.9,30.74,NW,312,1.0,0.0,40,0.00,,,-99.99,FreeWX-Wi 1.01,2013-10-06 15:28:00,
2013-10-06 11:33:00,-999.9,99.9,30.74,North,-999,0.0,0.0,40,0.00,,,-99.99,FreeWX-Wi 1.01,2013-10-06 15:33:00,
2013-10-06 11:38:00,-999.9,99.9,30.74,North,-999,0.0,0.0,39,0.00,,,-99.99,FreeWX-Wi 1.01,2013-10-06 15:38:00,
2013-10-06 11:43:00,-999.9,99.9,30.74,North,-999,0.0,0.0,39,0.00,,,-99.99,FreeWX-Wi 1.01,2013-10-06 15:43:00,
2013-10-06 11:48:00,-999.9,99.9,30.74,North,-999,0.0,0.0,39,0.00,,,-99.99,FreeWX-Wi 1.01,2013-10-06 15:48:00,
2013-10-06 11:53:00,-999.9,99.9,30.74,North,-999,0.0,0.0,39,0.00,,,-99.99,FreeWX-Wi 1.01,2013-10-06 15:53:00,
2013-10-06 11:58:00,-999.9,99.9,30.74,North,-999,0.0,3.6,40,0.00,,,-99.99,FreeWX-Wi 1.01,2013-10-06 15:58:00,
2013-10-06 12:03:00,-999.9,99.9,30.74,North,-999,0.0,3.1,41,0.00,,,-99.99,FreeWX-Wi 1.01,2013-10-06 16:03:00,
2013-10-06 12:08:00,-999.9,99.9,30.74,North,-999,0.0,2.7,42,0.00,,,-99.99,FreeWX-Wi 1.01,2013-10-06 16:08:00,
2013-10-06 12:13:00,-999.9,99.9,30.74,North,-999,0.0,0.0,44,0.00,,,-99.99,FreeWX-Wi 1.01,2013-10-06 16:13:00,
2013-10-06 12:18:00,-999.9,99.9,30.74,North,-999,0.0,3.1,43,0.00,,,-99.99,FreeWX-Wi 1.01,2013-10-06 16:18:00,
2013-10-06 12:23:00,-999.9,99.9,30.74,North,-999,0.0,3.1,44,0.00,,,-99.99,FreeWX-Wi 1.01,2013-10-06 16:23:00,
2013-10-06 12:28:00,-999.9,99.9,30.74,West,271,1.0,4.0,44,0.00,,,-99.99,FreeWX-Wi 1.01,2013-10-06 16:28:00,
2013-10-06 12:33:00,-999.9,99.9,30.74,West,263,1.0,3.6,43,0.00,,,-99.99,FreeWX-Wi 1.01,2013-10-06 16:33:00,
2013-10-06 12:38:00,-999.9,99.9,30.74,West,267,1.0,3.1,43,0.00,,,-99.99,FreeWX-Wi 1.01,2013-10-06 16:38:00,
2013-10-06 12:43:00,-999.9,99.9,30.74,West,269,1.0,3.1,43,0.00,,,-99.99,FreeWX-Wi 1.01,2013-10-06 16:43:00,
2013-10-06 12:48:00,-999.9,99.9,30.74,West,273,1.0,3.1,45,0.00,,,-99.99,FreeWX-Wi 1.01,2013-10-06 16:48:00,
2013-10-06 12:53:00,-999.9,99.9,30.74,West,275,1.0,0.0,45,0.00,,,-99.99,FreeWX-Wi 1.01,2013-10-06 16:53:00,
2013-10-06 12:58:00,-999.9,99.9,30.74,West,276,1.0,5.4,44,0.00,,,-99.99,FreeWX-Wi 1.01,2013-10-06 16:58:00,
2013-10-06 13:03:00,-999.9,99.9,30.74,West,275,1.0,4.0,44,0.00,,,-99.99,FreeWX-Wi 1.01,2013-10-06 17:03:00,
2013-10-06 13:08:00,-999.9,99.9,30.74,West,273,1.0,8.3,44,0.00,,,-99.99,FreeWX-Wi 1.01,2013-10-06 17:08:00,
2013-10-06 13:13:00,-999.9,99.9,30.74,West,267,2.0,6.3,46,0.00,,,-99.99,FreeWX-Wi 1.01,2013-10-06 17:13:00,
2013-10-06 13:18:00,-999.9,99.9,30.74,West,261,2.0,6.3,46,0.00,,,-99.99,FreeWX-Wi 1.01,2013-10-06 17:18:00,
2013-10-06 13:23:00,-999.9,99.9,30.74,WSW,256,3.0,5.4,46,0.00,,,-99.99,FreeWX-Wi 1.01,2013-10-06 17:23:00,
2013-10-06 13:28:00,-999.9,99.9,30.74,WSW,247,3.0,6.3,47,0.00,,,-99.99,FreeWX-Wi 1.01,2013-10-06 17:28:00,
2013-10-06 13:33:00,-999.9,99.9,30.74,WSW,243,3.0,6.3,47,0.00,,,-99.99,FreeWX-Wi 1.01,2013-10-06 17:33:00,
2013-10-06 13:38:00,-999.9,99.9,30.74,WSW,245,2.0,4.0,48,0.00,,,-99.99,FreeWX-Wi 1.01,2013-10-06 17:38:00,
2013-10-06 13:43:00,-999.9,99.9,30.74,WSW,247,2.0,4.5,48,0.00,,,-99.99,FreeWX-Wi 1.01,2013-10-06 17:43:00,
2013-10-06 13:48:00,-999.9,99.9,30.74,WSW,247,2.0,4.9,50,0.00,,,-99.99,FreeWX-Wi 1.01,2013-10-06 17:48:00,
2013-10-06 13:53:00,-999.9,99.9,30.74,WSW,254,2.0,4.0,50,0.00,,,-99.99,FreeWX-Wi 1.01,2013-10-06 17:53:00,
2013-10-06 13:58:00,-999.9,99.9,30.74,WSW,258,2.0,4.0,51,0.00,,,-99.99,FreeWX-Wi 1.01,2013-10-06 17:58:00,
2013-10-06 14:03:00,-999.9,99.9,30.74,WSW,258,2.0,5.4,50,0.00,,,-99.99,FreeWX-Wi 1.01,2013-10-06 18:03:00,
2013-10-06 14:08:00,-999.9,99.9,30.74,WSW,258,2.0,8.1,47,0.00,,,-99.99,FreeWX-Wi 1.01,2013-10-06 18:08:00,
2013-10-06 14:13:00,-999.9,99.9,30.74,WSW,257,2.0,5.8,47,0.00,,,-99.99,FreeWX-Wi 1.01,2013-10-06 18:13:00,
2013-10-06 14:18:00,-999.9,99.9,30.74,WSW,250,2.0,6.3,46,0.00,,,-99.99,FreeWX-Wi 1.01,2013-10-06 18:18:00,
2013-10-06 14:23:00,-999.9,99.9,30.74,SW,229,3.0,8.3,45,0.00,,,-99.99,FreeWX-Wi 1.01,2013-10-06 18:23:00,
2013-10-06 14:28:00,-999.9,99.9,30.74,SW,216,3.0,7.2,45,0.00,,,-99.99,FreeWX-Wi 1.01,2013-10-06 18:28:00,
2013-10-06 14:33:00,-999.9,99.9,30.74,SSW,206,4.0,7.6,45,0.00,,,-99.99,FreeWX-Wi 1.01,2013-10-06 18:33:00,
2013-10-06 14:38:00,-999.9,99.9,30.74,SSW,201,4.0,8.3,45,0.00,,,-99.99,FreeWX-Wi 1.01,2013-10-06 18:38:00,
2013-10-06 14:43:00,-999.9,99.9,30.74,SSW,197,4.0,5.8,45,0.00,,,-99.99,FreeWX-Wi 1.01,2013-10-06 18:43:00,
2013-10-06 14:48:00,-999.9,99.9,30.74,South,187,3.0,5.4,45,0.00,,,-99.99,FreeWX-Wi 1.01,2013-10-06 18:48:00,
2013-10-06 14:53:00,-999.9,99.9,30.74,SSW,196,3.0,6.3,45,0.00,,,-99.99,FreeWX-Wi 1.01,2013-10-06 18:53:00,
2013-10-06 14:58:00,-999.9,99.9,30.74,SSE,163,2.0,4.0,46,0.00,,,-99.99,FreeWX-Wi 1.01,2013-10-06 18:58:00,
2013-10-06 15:03:00,-999.9,99.9,30.74,SSE,149,2.0,5.8,46,0.00,,,-99.99,FreeWX-Wi 1.01,2013-10-06 19:03:00,
2013-10-06 15:08:00,-999.9,99.9,30.74,SSW,200,2.0,8.1,47,0.00,,,-99.99,FreeWX-Wi 1.01,2013-10-06 19:08:00,
2013-10-06 15:13:00,-999.9,99.9,30.74,SW,215,2.0,0.0,47,0.00,,,-99.99,FreeWX-Wi 1.01,2013-10-06 19:13:00,
2013-10-06 15:18:00,-999.9,99.9,30.74,WSW,237,2.0,5.4,49,0.00,,,-99.99,FreeWX-Wi 1.01,2013-10-06 19:18:00,
2013-10-06 15:23:00,-999.9,99.9,30.74,WSW,250,1.0,2.7,51,0.00,,,-99.99,FreeWX-Wi 1.01,2013-10-06 19:23:00,
2013-10-06 15:28:00,-999.9,99.9,30.74,West,265,2.0,4.0,53,0.00,,,-99.99,FreeWX-Wi 1.01,2013-10-06 19:28:00,
2013-10-06 15:33:00,-999.9,99.9,30.74,West,277,1.0,4.0,56,0.00,,,-99.99,FreeWX-Wi 1.01,2013-10-06 19:33:00,
2013-10-06 15:38:00,-999.9,99.9,30.74,NW,304,1.0,4.0,59,0.00,,,-99.99,FreeWX-Wi 1.01,2013-10-06 19:38:00,
2013-10-06 15:43:00,-999.9,99.9,30.74,WNW,303,1.0,4.0,61,0.00,,,-99.99,FreeWX-Wi 1.01,2013-10-06 19:43:00,
2013-10-06 15:48:00,-999.9,99.9,30.74,NW,310,2.0,6.3,63,0.00,,,-99.99,FreeWX-Wi 1.01,2013-10-06 19:48:00,
2013-10-06 15:53:00,-999.9,99.9,30.74,WNW,297,2.0,6.3,65,0.00,,,-99.99,FreeWX-Wi 1.01,2013-10-06 19:53:00,
2013-10-06 15:58:00,-999.9,-99.9,30.74,West,270,2.0,5.8,68,0.04,,,-99.99,FreeWX-Wi 1.01,2013-10-06 19:58:00,
2013-10-06 16:03:00,-999.9,-99.9,30.74,West,264,2.0,4.9,69,0.04,,,-99.99,FreeWX-Wi 1.01,2013-10-06 20:03:00,
2013-10-06 16:08:00,-999.9,-99.9,30.74,WSW,257,2.0,4.9,71,0.04,,,-99.99,FreeWX-Wi 1.01,2013-10-06 20:08:00,
2013-10-06 16:13:00,-999.9,-99.9,30.74,WSW,246,2.0,5.4,72,0.04,,,-99.99,FreeWX-Wi 1.01,2013-10-06 20:13:00,
2013-10-06 16:18:00,-999.9,-99.9,30.74,SW,225,2.0,5.4,75,0.04,,,-99.99,FreeWX-Wi 1.01,2013-10-06 20:18:00,
2013-10-06 16:23:00,-999.9,-99.9,30.74,SW,223,2.0,7.2,76,0.04,,,-99.99,FreeWX-Wi 1.01,2013-10-06 20:23:00,
2013-10-06 16:28:00,-999.9,-99.9,30.74,SW,223,2.0,5.4,76,0.04,,,-99.99,FreeWX-Wi 1.01,2013-10-06 20:28:00,
2013-10-06 16:33:00,-999.9,-99.9,30.74,SW,222,2.0,4.9,76,0.04,,,-99.99,FreeWX-Wi 1.01,2013-10-06 20:33:00,
2013-10-06 16:38:00,-999.9,-99.9,30.74,SW,221,2.0,4.9,77,0.04,,,-99.99,FreeWX-Wi 1.01,2013-10-06 20:38:00,
2013-10-06 16:43:00,-999.9,-99.9,30.74,SW,228,2.0,5.8,77,0.04,,,-99.99,FreeWX-Wi 1.01,2013-10-06 20:43:00,
2013-10-06 16:48:00,-999.9,-99.9,30.74,SW,226,2.0,7.6,78,0.04,,,-99.99,FreeWX-Wi 1.01,2013-10-06 20:48:00,
2013-10-06 16:53:00,-999.9,-99.9,30.74,SW,231,2.0,5.8,79,0.04,,,-99.99,FreeWX-Wi 1.01,2013-10-06 20:53:00,
2013-10-06 16:58:00,-999.9,-99.9,30.74,SW,230,2.0,4.9,79,0.00,,,-99.99,FreeWX-Wi 1.01,2013-10-06 20:58:00,
2013-10-06 17:03:00,-999.9,-99.9,30.74,SW,224,2.0,6.3,79,0.00,,,-99.99,FreeWX-Wi 1.01,2013-10-06 21:03:00,
2013-10-06 17:08:00,-999.9,-99.9,30.74,SW,226,2.0,4.0,80,0.00,,,-99.99,FreeWX-Wi 1.01,2013-10-06 21:08:00,
2013-10-06 17:13:00,-999.9,-99.9,30.74,WSW,239,2.0,3.6,80,0.00,,,-99.99,FreeWX-Wi 1.01,2013-10-06 21:13:00,
2013-10-06 17:18:00,-999.9,-99.9,30.74,SW,232,2.0,7.6,81,0.00,,,-99.99,FreeWX-Wi 1.01,2013-10-06 21:18:00,
2013-10-06 17:23:00,-999.9,-99.9,30.74,SW,230,2.0,4.0,81,0.00,,,-99.99,FreeWX-Wi 1.01,2013-10-06 21:23:00,
2013-10-06 17:28:00,-999.9,-99.9,30.74,SW,233,2.0,8.1,81,0.00,,,-99.99,FreeWX-Wi 1.01,2013-10-06 21:28:00,
2013-10-06 17:33:00,-999.9,-99.9,30.74,WSW,244,3.0,8.3,82,0.00,,,-99.99,FreeWX-Wi 1.01,2013-10-06 21:33:00,
2013-10-06 17:38:00,-999.9,-99.9,30.74,WSW,254,3.0,8.1,82,0.00,,,-99.99,FreeWX-Wi 1.01,2013-10-06 21:38:00,
2013-10-06 17:43:00,-999.9,-99.9,30.74,WSW,255,3.0,6.3,83,0.00,,,-99.99,FreeWX-Wi 1.01,2013-10-06 21:43:00,
2013-10-06 17:49:00,-999.9,-99.9,30.74,WSW,247,3.0,7.6,83,0.00,,,-99.99,FreeWX-Wi 1.01,2013-10-06 21:49:00,
2013-10-06 17:54:00,-999.9,-99.9,30.74,WSW,253,3.0,7.2,83,0.00,,,-99.99,FreeWX-Wi 1.01,2013-10-06 21:54:00,
2013-10-06 17:59:00,-999.9,-99.9,30.74,WSW,249,3.0,5.4,83,0.00,,,-99.99,FreeWX-Wi 1.01,2013-10-06 21:59:00,
2013-10-06 18:04:00,-999.9,-99.9,30.74,SW,235,3.0,7.6,83,0.00,,,-99.99,FreeWX-Wi 1.01,2013-10-06 22:04:00,
2013-10-06 18:09:00,-999.9,-99.9,30.74,SW,233,3.0,5.8,83,0.00,,,-99.99,FreeWX-Wi 1.01,2013-10-06 22:09:00,
2013-10-06 18:14:00,-999.9,-99.9,30.74,SSW,211,3.0,6.3,83,0.00,,,-99.99,FreeWX-Wi 1.01,2013-10-06 22:14:00,
2013-10-06 18:19:00,-999.9,-99.9,30.74,SW,228,3.0,8.3,84,0.00,,,-99.99,FreeWX-Wi 1.01,2013-10-06 22:19:00,
2013-10-06 18:24:00,-999.9,-99.9,30.74,WSW,247,3.0,8.1,84,0.04,,,-99.99,FreeWX-Wi 1.01,2013-10-06 22:24:00,
2013-10-06 18:29:00,-999.9,-99.9,30.74,WSW,245,4.0,8.7,84,0.04,,,-99.99,FreeWX-Wi 1.01,2013-10-06 22:29:00,
2013-10-06 18:34:00,-999.9,-99.9,30.74,WSW,240,3.0,5.8,84,0.04,,,-99.99,FreeWX-Wi 1.01,2013-10-06 22:34:00,
2013-10-06 18:39:00,-999.9,-99.9,30.74,SW,235,4.0,8.3,84,0.04,,,-99.99,FreeWX-Wi 1.01,2013-10-06 22:39:00,
2013-10-06 18:44:00,-999.9,-99.9,30.74,WSW,238,4.0,8.1,84,0.04,,,-99.99,FreeWX-Wi 1.01,2013-10-06 22:44:00,
2013-10-06 18:49:00,-999.9,-99.9,30.74,SW,230,4.0,11.0,84,0.04,,,-99.99,FreeWX-Wi 1.01,2013-10-06 22:49:00,
2013-10-06 18:54:00,-999.9,-99.9,30.74,SW,222,4.0,12.3,84,0.04,,,-99.99,FreeWX-Wi 1.01,2013-10-06 22:54:00,
2013-10-06 18:59:00,-999.9,-99.9,30.74,SW,214,5.0,12.3,85,0.04,,,-99.99,FreeWX-Wi 1.01,2013-10-06 22:59:00,
2013-10-06 19:04:00,-999.9,-99.9,30.74,SSW,213,5.0,11.0,85,0.08,,,-99.99,FreeWX-Wi 1.01,2013-10-06 23:04:00,
2013-10-06 19:09:00,-999.9,-99.9,30.74,SW,215,6.0,12.3,85,0.08,,,-99.99,FreeWX-Wi 1.01,2013-10-06 23:09:00,
2013-10-06 19:14:00,-999.9,-99.9,30.74,SSW,210,6.0,10.5,85,0.08,,,-99.99,FreeWX-Wi 1.01,2013-10-06 23:14:00,
2013-10-06 19:19:00,-999.9,-99.9,30.74,SSW,210,6.0,10.1,85,0.04,,,-99.99,FreeWX-Wi 1.01,2013-10-06 23:19:00,
2013-10-06 19:24:00,-999.9,-99.9,30.74,SSW,212,6.0,8.3,85,0.04,,,-99.99,FreeWX-Wi 1.01,2013-10-06 23:24:00,
2013-10-06 19:29:00,-999.9,-99.9,30.74,SW,216,5.0,5.4,85,0.04,,,-99.99,FreeWX-Wi 1.01,2013-10-06 23:29:00,
2013-10-06 19:34:00,-999.9,-99.9,30.74,SW,217,5.0,6.3,85,0.04,,,-99.99,FreeWX-Wi 1.01,2013-10-06 23:34:00,
2013-10-06 19:39:00,-999.9,-99.9,30.74,SW,222,4.0,9.6,85,0.04,,,-99.99,FreeWX-Wi 1.01,2013-10-06 23:39:00,
2013-10-06 19:44:00,-999.9,-99.9,30.74,SW,227,4.0,8.3,85,0.04,,,-99.99,FreeWX-Wi 1.01,2013-10-06 23:44:00,
2013-10-06 19:49:00,-999.9,-99.9,30.74,SW,227,4.0,6.3,86,0.04,,,-99.99,FreeWX-Wi 1.01,2013-10-06 23:49:00,
2013-10-06 19:54:00,-999.9,-99.9,30.74,SW,228,4.0,12.3,86,0.04,,,-99.99,FreeWX-Wi 1.01,2013-10-06 23:54:00,
2013-10-06 19:59:00,-999.9,-99.9,30.74,SW,233,4.0,5.4,87,0.04,,,-99.99,FreeWX-Wi 1.01,2013-10-06 23:59:00,
2013-10-06 20:04:00,-999.9,-99.9,30.74,WSW,237,3.0,5.4,87,0.00,,,-99.99,FreeWX-Wi 1.01,2013-10-07 00:04:00,
2013-10-06 20:09:00,-999.9,-99.9,30.74,WSW,240,3.0,6.3,87,0.00,,,-99.99,FreeWX-Wi 1.01,2013-10-07 00:09:00,
2013-10-06 20:14:00,-999.9,-99.9,30.74,WSW,245,3.0,7.6,86,0.00,,,-99.99,FreeWX-Wi 1.01,2013-10-07 00:14:00,
2013-10-06 20:19:00,-999.9,-99.9,30.74,WSW,246,3.0,6.3,86,0.00,,,-99.99,FreeWX-Wi 1.01,2013-10-07 00:19:00,
2013-10-06 20:24:00,-999.9,-99.9,30.74,WSW,245,3.0,8.3,86,0.00,,,-99.99,FreeWX-Wi 1.01,2013-10-07 00:24:00,
2013-10-06 20:29:00,-999.9,-99.9,30.74,WSW,237,3.0,8.7,86,0.00,,,-99.99,FreeWX-Wi 1.01,2013-10-07 00:29:00,
2013-10-06 20:34:00,-999.9,-99.9,30.74,SW,230,4.0,10.1,86,0.00,,,-99.99,FreeWX-Wi 1.01,2013-10-07 00:34:00,
2013-10-06 20:39:00,-999.9,-99.9,30.74,SW,227,4.0,10.5,86,0.00,,,-99.99,FreeWX-Wi 1.01,2013-10-07 00:39:00,
2013-10-06 20:44:00,-999.9,-99.9,30.74,SW,228,4.0,8.7,85,0.00,,,-99.99,FreeWX-Wi 1.01,2013-10-07 00:44:00,
2013-10-06 20:49:00,-999.9,-99.9,30.74,SW,232,5.0,8.7,84,0.00,,,-99.99,FreeWX-Wi 1.01,2013-10-07 00:49:00,
2013-10-06 20:54:00,-999.9,-99.9,30.74,SW,233,5.0,8.1,84,0.00,,,-99.99,FreeWX-Wi 1.01,2013-10-07 00:54:00,
2013-10-06 20:59:00,-999.9,-99.9,30.74,WSW,238,5.0,7.2,84,0.00,,,-99.99,FreeWX-Wi 1.01,2013-10-07 00:59:00,
2013-10-06 21:04:00,-999.9,-99.9,30.74,WSW,246,5.0,9.6,84,0.00,,,-99.99,FreeWX-Wi 1.01,2013-10-07 01:04:00,
2013-10-06 21:09:00,-999.9,-99.9,30.74,WSW,245,4.0,10.1,83,0.00,,,-99.99,FreeWX-Wi 1.01,2013-10-07 01:09:00,
2013-10-06 21:14:00,-999.9,-99.9,30.74,WSW,247,4.0,8.7,83,0.00,,,-99.99,FreeWX-Wi 1.01,2013-10-07 01:14:00,
2013-10-06 21:19:00,-999.9,-99.9,30.74,WSW,249,4.0,7.2,82,0.00,,,-99.99,FreeWX-Wi 1.01,2013-10-07 01:19:00,
2013-10-06 21:24:00,-999.9,-99.9,30.74,WSW,245,4.0,8.3,82,0.00,,,-99.99,FreeWX-Wi 1.01,2013-10-07 01:24:00,
2013-10-06 21:29:00,-999.9,-99.9,30.74,WSW,242,5.0,7.6,82,0.00,,,-99.99,FreeWX-Wi 1.01,2013-10-07 01:29:00,
2013-10-06 21:34:00,-999.9,-99.9,30.74,WSW,237,4.0,8.7,81,0.00,,,-99.99,FreeWX-Wi 1.01,2013-10-07 01:34:00,
2013-10-06 21:39:00,-999.9,-99.9,30.74,WSW,237,5.0,8.1,81,0.00,,,-99.99,FreeWX-Wi 1.01,2013-10-07 01:39:00,
2013-10-06 21:44:00,-999.9,-99.9,30.74,WSW,239,5.0,13.2,81,0.00,,,-99.99,FreeWX-Wi 1.01,2013-10-07 01:44:00,
2013-10-06 21:49:00,-999.9,-99.9,30.74,SW,236,5.0,12.8,80,0.00,,,-99.99,FreeWX-Wi 1.01,2013-10-07 01:49:00,
2013-10-06 21:54:00,-999.9,-99.9,30.74,SW,234,6.0,12.8,80,0.00,,,-99.99,FreeWX-Wi 1.01,2013-10-07 01:54:00,
2013-10-06 21:59:00,-999.9,-99.9,30.74,SW,233,6.0,8.7,79,0.00,,,-99.99,FreeWX-Wi 1.01,2013-10-07 01:59:00,
2013-10-06 22:04:00,-999.9,-99.9,30.74,SW,228,6.0,12.8,78,0.00,,,-99.99,FreeWX-Wi 1.01,2013-10-07 02:04:00,
2013-10-06 22:09:00,-999.9,-99.9,30.74,SW,225,6.0,11.0,78,0.00,,,-99.99,FreeWX-Wi 1.01,2013-10-07 02:09:00,
2013-10-06 22:14:00,-999.9,-99.9,30.74,SW,223,6.0,13.2,77,0.00,,,-99.99,FreeWX-Wi 1.01,2013-10-07 02:14:00,
2013-10-06 22:19:00,-999.9,-99.9,30.74,SW,221,7.0,13.2,77,0.00,,,-99.99,FreeWX-Wi 1.01,2013-10-07 02:19:00,
2013-10-06 22:24:00,-999.9,-99.9,30.74,SW,220,7.0,11.0,77,0.00,,,-99.99,FreeWX-Wi 1.01,2013-10-07 02:24:00,
2013-10-06 22:29:00,-999.9,-99.9,30.74,SW,220,7.0,13.2,77,0.00,,,-99.99,FreeWX-Wi 1.01,2013-10-07 02:29:00,
2013-10-06 22:34:00,-999.9,-99.9,30.74,SW,223,6.0,10.5,77,0.00,,,-99.99,FreeWX-Wi 1.01,2013-10-07 02:34:00,
2013-10-06 22:39:00,-999.9,-99.9,30.74,SW,227,6.0,8.7,77,0.00,,,-99.99,FreeWX-Wi 1.01,2013-10-07 02:39:00,
2013-10-06 22:44:00,-999.9,-99.9,30.74,SW,225,6.0,8.1,77,0.00,,,-99.99,FreeWX-Wi 1.01,2013-10-07 02:44:00,
2013-10-06 22:49:00,-999.9,-99.9,30.74,SW,227,5.0,8.3,77,0.00,,,-99.99,FreeWX-Wi 1.01,2013-10-07 02:49:00,
2013-10-06 22:54:00,-999.9,-99.9,30.74,SW,232,5.0,7.6,76,0.00,,,-99.99,FreeWX-Wi 1.01,2013-10-07 02:54:00,
2013-10-06 22:59:00,-999.9,-99.9,30.74,WSW,237,5.0,6.3,76,0.00,,,-99.99,FreeWX-Wi 1.01,2013-10-07 02:59:00,
2013-10-06 23:04:00,-999.9,-99.9,30.74,WSW,237,4.0,6.3,76,0.00,,,-99.99,FreeWX-Wi 1.01,2013-10-07 03:04:00,
2013-10-06 23:09:00,-999.9,-99.9,30.74,WSW,237,4.0,8.7,76,0.00,,,-99.99,FreeWX-Wi 1.01,2013-10-07 03:09:00,
2013-10-06 23:14:00,-999.9,-99.9,30.74,WSW,237,5.0,10.5,76,0.00,,,-99.99,FreeWX-Wi 1.01,2013-10-07 03:14:00,
2013-10-06 23:19:00,-999.9,-99.9,30.74,WSW,237,5.0,13.6,76,0.00,,,-99.99,FreeWX-Wi 1.01,2013-10-07 03:19:00,
2013-10-06 23:24:00,-999.9,-99.9,30.74,SW,233,6.0,10.1,75,0.00,,,-99.99,FreeWX-Wi 1.01,2013-10-07 03:24:00,
2013-10-06 23:29:00,-999.9,-99.9,30.74,SW,231,6.0,8.1,75,0.00,,,-99.99,FreeWX-Wi 1.01,2013-10-07 03:29:00,
2013-10-06 23:34:00,-999.9,-99.9,30.74,SW,230,6.0,8.1,75,0.00,,,-99.99,FreeWX-Wi 1.01,2013-10-07 03:34:00,
2013-10-06 23:39:00,-999.9,-99.9,30.74,SW,232,5.0,8.3,75,0.00,,,-99.99,FreeWX-Wi 1.01,2013-10-07 03:39:00,
2013-10-06 23:44:00,-999.9,-99.9,30.74,SW,235,5.0,10.1,75,0.00,,,-99.99,FreeWX-Wi 1.01,2013-10-07 03:44:00,
2013-10-06 23:49:00,-999.9,-99.9,30.74,WSW,238,5.0,8.1,74,0.00,,,-99.99,FreeWX-Wi 1.01,2013-10-07 03:49:00,
2013-10-06 23:54:00,-999.9,-99.9,30.74,SW,236,5.0,12.8,74,0.00,,,-99.99,FreeWX-Wi 1.01,2013-10-07 03:54:00,
2013-10-06 23:59:00,-999.9,-99.9,30.74,WSW,237,5.0,11.0,74,0.00,,,-99.99,FreeWX-Wi 1.01,2013-10-07 03:59:00,